[[{"header":{"parameterUnit":"m.s-1","parameterCategory":1,"la1":30.2991,"la2":30.254,"lo1":-89.0895,"lo2":-89.0444,"dy":0.0017,"dx":0.0017,"nx":28,"ny":28,"refTime":"2025-11-07T09:00:00:Z","depth":0,"parameterNumber":2,"parameterNumberName":"U-component_of_WINDS"},"data":[0,0,0,0,0,0,0,0,0,0,0,0,0,0,0,0,0,0,0,0,0,0,0,0,0,0,0,0,0,0,0,0,0,0,0,0,0,0,0,0,0,0,0,0,0,0,0,0,0,0,0,0,0,0,0,0,0,0,-2.1007,-2.1007,0,-2.0986,-2.0986,-2.0985,-2.0924,-2.0923,-2.0921,-2.092,-2.0899,-2.09,-2.0901,0,0,0,0,0,0,0,0,0,0,0,0,0,-2.0994,-2.0994,-2.1007,-2.1007,-2.1006,-2.0986,-2.0986,-2.0985,-2.0924,-2.0923,-2.0921,-2.092,-2.0899,-2.09,-2.0901,0,0,0,0,0,0,0,0,0,0,0,0,0,-2.0989,-2.0995,-2.1007,-2.0973,-2.097,-2.0986,-2.0986,-2.0985,-2.0925,-2.0923,-2.0921,-2.0919,-2.0899,-2.09,-2.0901,-2.0947,0,0,-2.0904,-2.0904,0,0,0,0,0,0,0,0,-2.0989,-2.0989,-2.0979,-2.0976,-2.0972,-2.0955,-2.0973,-2.0973,-2.0925,-2.0942,-2.092,-2.0918,-2.092,-2.0919,-2.0919,-2.0946,-2.0945,-2.0904,-2.0905,-2.0905,-2.0905,0,0,0,0,0,0,0,-2.099,-2.099,-2.0998,-2.0978,-2.0975,-2.0959,-2.0956,-2.0973,-2.0942,-2.094,-2.0936,-2.0934,-2.0917,-2.0918,-2.0918,-2.0945,-2.0904,-2.0905,-2.0906,-2.0906,-2.1008,-2.101,0,0,0,0,0,0,-2.0995,-2.0991,-2.0999,-2.0998,-2.0976,-2.0961,-2.0958,-2.0963,-2.0942,-2.0937,-2.0936,-2.0931,-2.0918,-2.0917,-2.0917,-2.0969,-2.0905,-2.0906,-2.0907,-2.1006,-2.1008,-2.101,0,0,0,0,0,0,-2.0995,-2.0996,-2.1,-2.0993,-2.0992,-2.0964,-2.097,-2.0964,-2.0964,-2.0939,-2.0933,-2.0943,-2.0916,-2.0916,-2.094,-2.0967,-2.0906,-2.0907,-2.1003,-2.1006,-2.1009,-2.1073,0,0,0,0,0,0,-2.0995,-2.0997,-2.1014,-2.0994,-2.0993,-2.1023,-2.0971,-2.0965,-2.0966,-2.096,-2.0943,-2.0939,-2.0914,-2.0939,-2.0941,-2.0968,-2.0908,-2.1,-2.1005,-2.1008,-2.1069,-2.1078,-2.1087,0,0,0,0,0,-2.0994,-2.1033,-2.1015,-2.1017,-2.1014,-2.1025,-2.1024,-2.0996,-2.0969,-2.0986,-2.0969,-2.0939,-2.0965,-2.0942,-2.0944,-2.0971,-2.0999,-2.1003,-2.1008,-2.1065,-2.1076,-2.1086,0,0,0,0,0,0,-2.1058,-2.103,-2.101,-2.1043,-2.1037,-2.1014,-2.1035,-2.1009,-2.101,-2.1005,-2.0969,-2.0966,-2.0995,-2.0986,-2.0961,-2.1014,-2.0976,-2.0982,-2.1019,-2.103,-2.1039,-2.1039,-2.0909,0,0,0,0,0,-2.1076,-2.1087,-2.1062,-2.1094,-2.1092,-2.1064,-2.1068,-2.1046,-2.1038,-2.1035,-2.102,-2.1014,-2.102,-2.1025,-2.1029,-2.1068,-2.1062,-2.1088,-2.1097,-2.1104,-2.1108,-2.1126,-2.1137,-2.1026,-2.1026,-2.1026,0,0,-2.1113,-2.1099,-2.1108,-2.1106,-2.1099,-2.111,-2.1062,-2.1077,-2.1085,-2.1037,-2.1058,-2.1048,-2.1038,-2.1069,-2.1082,-2.1062,-2.1138,-2.111,-2.1116,-2.1116,-2.1132,-2.1143,-2.1152,-2.1029,-2.1028,-2.1028,0,0,-2.1185,-2.1177,-2.1202,-2.1195,-2.1184,-2.1165,-2.1172,-2.1153,-2.1143,-2.1164,-2.1128,-2.1138,-2.115,-2.1143,-2.1142,-2.1212,-2.1184,-2.1215,-2.1261,-2.1279,-2.1288,-2.1295,-2.1318,-2.1327,-2.122,-2.122,-2.122,0,-2.1233,-2.1248,-2.1218,-2.1234,-2.1234,-2.1191,-2.1216,-2.1211,-2.1202,-2.1203,-2.1181,-2.1194,-2.1185,-2.1213,-2.123,-2.1231,-2.1236,-2.1216,-2.1289,-2.1296,-2.1303,-2.1324,-2.1333,-2.1224,-2.1223,-2.1223,-2.1223,0,-2.1306,-2.1318,-2.1339,-2.1331,-2.1334,-2.1354,-2.1326,-2.1332,-2.1311,-2.1295,-2.1316,-2.1303,-2.1303,-2.1309,-2.1288,-2.1334,-2.1322,-2.1295,-2.1256,-2.1318,-2.1337,-2.1345,-2.1229,-2.1228,-2.1227,-2.1226,0,0,-2.1417,-2.1391,-2.14,-2.1395,-2.1379,-2.1388,-2.1406,-2.1406,-2.1411,-2.1407,-2.1421,-2.1432,-2.1407,-2.1405,-2.1384,-2.14,-2.1454,-2.1371,-2.137,-2.1385,-2.1501,-2.152,-2.153,-2.1436,-2.1438,-2.1439,-2.1501,0,-2.1484,-2.1513,-2.1486,-2.1521,-2.153,-2.149,-2.1506,-2.1498,-2.1484,-2.149,-2.1474,-2.1481,-2.1449,-2.1447,-2.1461,-2.1445,-2.1477,-2.144,-2.1447,-2.1448,-2.1449,-2.154,-2.156,-2.162,-2.1509,-2.151,-2.1511,0,-2.1566,-2.1564,-2.16,-2.1581,-2.1584,-2.1599,-2.1596,-2.1603,-2.1593,-2.1581,-2.1579,-2.1553,-2.1569,-2.1533,-2.1554,-2.1529,-2.1531,-2.1523,-2.1525,-2.1523,-2.1482,-2.1539,-2.1638,-2.1646,-2.1524,-2.1523,-2.1522,0,-2.1641,-2.1648,-2.1669,-2.1667,-2.1646,-2.1657,-2.1649,-2.1637,-2.1639,-2.1637,-2.1637,-2.1637,-2.1637,-2.1637,-2.1612,-2.1588,-2.1636,-2.1597,-2.1625,-2.1626,-2.1635,-2.1635,-2.1734,-2.164,-2.164,-2.164,-2.164,0,-2.1717,-2.174,-2.1702,-2.1715,-2.1739,-2.1708,-2.1733,-2.1721,-2.1711,-2.172,-2.1687,-2.1696,-2.1663,-2.1669,-2.1649,-2.1669,-2.1669,-2.166,-2.1653,-2.1661,-2.1662,-2.166,-2.1654,-2.1642,-2.1642,-2.1641,-2.1641,0,-2.1804,-2.178,-2.18,-2.1779,-2.1774,-2.1792,-2.1774,-2.1785,-2.1768,-2.1781,-2.1782,-2.1756,-2.1761,-2.1736,-2.1738,-2.1724,-2.1753,-2.1741,-2.1756,-2.1751,-2.178,-2.1777,-2.188,-2.1891,-2.1792,-2.1793,-2.1794,0,-2.1853,-2.1869,-2.1849,-2.1853,-2.1847,-2.1854,-2.1854,-2.1825,-2.1827,-2.1817,-2.1829,-2.1832,-2.1832,-2.1842,-2.1823,-2.1824,-2.181,-2.1847,-2.181,-2.1817,-2.1808,-2.1807,-2.1807,-2.1853,-2.1855,-2.1856,-2.1857,0,-2.1942,-2.1929,-2.1932,-2.193,-2.1932,-2.1929,-2.1925,-2.193,-2.1898,-2.1902,-2.1907,-2.1907,-2.1908,-2.191,-2.1907,-2.1898,-2.1872,-2.1869,-2.1874,-2.1881,-2.1888,-2.1883,-2.1774,-2.1866,-2.1865,-2.1864,-2.1864,-2.1863,-2.2009,-2.2021,-2.2009,-2.2013,-2.2006,-2.2002,-2.2011,-2.1995,-2.1998,-2.1996,-2.1979,-2.1987,-2.1976,-2.1969,-2.1963,-2.1968,-2.1951,-2.196,-2.1962,-2.1964,-2.1968,-2.1889,-2.1968,-2.1967,-2.1967,-2.1967,-2.1967,0,-2.2095,-2.2085,-2.2089,-2.2082,-2.2085,-2.2061,-2.2054,-2.2057,-2.2065,-2.2057,-2.2058,-2.2063,-2.2065,-2.2046,-2.2046,-2.2054,-2.2041,-2.2054,-2.2052,-2.205,-2.1985,-2.1978,-2.2064,-2.2064,-2.2064,-2.2064,-2.2064,-2.2064,-2.2139,-2.2157,-2.2143,-2.2158,-2.2147,-2.2154,-2.2152,-2.2148,-2.2142,-2.2149,-2.215,-2.2138,-2.2125,-2.2124,-2.2124,-2.2119,-2.2119,-2.2136,-2.2126,-2.2065,-2.2055,-2.2046,-2.204,-2.2137,-2.2137,-2.2191,-2.2191,-2.2192]},{"header":{"parameterUnit":"m.s-1","parameterCategory":1,"la1":30.2991,"la2":30.254,"lo1":-89.0895,"lo2":-89.0444,"dy":0.0017,"dx":0.0017,"nx":28,"ny":28,"refTime":"2025-11-07T09:00:00:Z","depth":0,"parameterNumber":3,"parameterNumberName":"V-component_of_WINDS"},"data":[0,0,0,0,0,0,0,0,0,0,0,0,0,0,0,0,0,0,0,0,0,0,0,0,0,0,0,0,0,0,0,0,0,0,0,0,0,0,0,0,0,0,0,0,0,0,0,0,0,0,0,0,0,0,0,0,0,0,0.0814,0.0814,0,0.0847,0.0848,0.0848,0.0817,0.0816,0.0815,0.0814,0.0852,0.0854,0.0856,0,0,0,0,0,0,0,0,0,0,0,0,0,0.0731,0.0732,0.0814,0.0814,0.0815,0.0847,0.0848,0.0848,0.0818,0.0816,0.0815,0.0813,0.0851,0.0854,0.0857,0,0,0,0,0,0,0,0,0,0,0,0,0,0.0766,0.0733,0.0814,0.0804,0.0803,0.0847,0.0848,0.0848,0.0818,0.0816,0.0814,0.0813,0.0851,0.0854,0.0857,0.0915,0,0,0.0867,0.0868,0,0,0,0,0,0,0,0,0.0764,0.0769,0.0805,0.0804,0.0804,0.0826,0.0832,0.0871,0.0818,0.0812,0.0814,0.0812,0.0845,0.0849,0.0859,0.0916,0.0918,0.0867,0.0869,0.0871,0.0872,0,0,0,0,0,0,0,0.0761,0.0767,0.0827,0.0805,0.0805,0.0799,0.0802,0.0839,0.0839,0.0813,0.0811,0.0815,0.0845,0.0856,0.086,0.0919,0.0867,0.087,0.0872,0.0873,0.1029,0.1031,0,0,0,0,0,0,0.0759,0.0765,0.0826,0.0828,0.0779,0.0802,0.0805,0.0821,0.0839,0.0839,0.0816,0.0813,0.0852,0.0856,0.0861,0.0933,0.0871,0.0874,0.0876,0.1027,0.1029,0.1031,0,0,0,0,0,0,0.0758,0.0765,0.0825,0.0796,0.0803,0.0806,0.0823,0.0823,0.0834,0.0841,0.0841,0.0828,0.085,0.0857,0.0902,0.0933,0.0875,0.0878,0.1024,0.1027,0.103,0.1074,0,0,0,0,0,0,0.0755,0.0765,0.0785,0.0797,0.0805,0.0863,0.0825,0.0825,0.0839,0.0836,0.0852,0.0853,0.0849,0.0897,0.0905,0.0937,0.0881,0.1021,0.1025,0.1029,0.107,0.1078,0.1086,0,0,0,0,0,0.0752,0.0796,0.0786,0.0793,0.083,0.0865,0.087,0.0864,0.0842,0.0864,0.0869,0.0852,0.0928,0.0902,0.0911,0.0944,0.1019,0.1024,0.1029,0.1066,0.1077,0.1085,0,0,0,0,0,0,0.0788,0.0797,0.0786,0.0834,0.0849,0.086,0.0887,0.0874,0.0897,0.0892,0.0885,0.0889,0.0938,0.0945,0.0916,0.1003,0.0971,0.0977,0.0996,0.1006,0.1014,0.1012,0.0883,0,0,0,0,0,0.0802,0.0827,0.0834,0.0877,0.0884,0.0885,0.0899,0.0893,0.0909,0.0915,0.0924,0.0941,0.0969,0.0988,0.1013,0.107,0.1076,0.1098,0.1106,0.1112,0.1119,0.1153,0.1164,0.1047,0.1047,0.1047,0,0,0.083,0.0838,0.0855,0.0884,0.0895,0.0924,0.089,0.0922,0.0944,0.0921,0.0964,0.0971,0.099,0.1043,0.1066,0.1051,0.1152,0.1118,0.1123,0.1127,0.1159,0.117,0.118,0.1051,0.105,0.105,0,0,0.0897,0.0904,0.0941,0.0953,0.0969,0.097,0.0979,0.0992,0.0995,0.1039,0.1023,0.1051,0.1098,0.1113,0.1127,0.1203,0.119,0.1211,0.1253,0.1287,0.1296,0.1304,0.1335,0.1345,0.1218,0.1218,0.1218,0,0.093,0.0972,0.0962,0.0996,0.1011,0.099,0.103,0.1042,0.1067,0.1079,0.106,0.1122,0.1133,0.119,0.1209,0.122,0.1232,0.121,0.1295,0.1303,0.1311,0.134,0.1351,0.122,0.122,0.122,0.1219,0,0.1014,0.1043,0.1072,0.1096,0.1114,0.115,0.1149,0.1169,0.1162,0.1165,0.1211,0.1224,0.1254,0.1267,0.126,0.1324,0.1315,0.1296,0.1264,0.1325,0.1352,0.1363,0.1224,0.1223,0.1222,0.1222,0,0,0.1103,0.1123,0.1134,0.1146,0.1164,0.1188,0.1225,0.1253,0.1271,0.129,0.1323,0.1365,0.1348,0.1364,0.136,0.1389,0.1452,0.1367,0.1368,0.1385,0.1528,0.1544,0.1556,0.1443,0.1445,0.1447,0.1527,0,0.1173,0.1235,0.123,0.129,0.132,0.1301,0.1334,0.135,0.1355,0.1382,0.1387,0.1418,0.1393,0.1403,0.1431,0.1438,0.1481,0.1432,0.1477,0.1479,0.1475,0.157,0.1586,0.1661,0.1538,0.1539,0.154,0,0.1262,0.1284,0.1347,0.1363,0.1375,0.1405,0.1432,0.1457,0.1476,0.1477,0.1497,0.1488,0.1528,0.1494,0.1552,0.1519,0.1537,0.1544,0.1547,0.1553,0.1515,0.1581,0.1684,0.1697,0.1556,0.1555,0.1554,0,0.1325,0.137,0.1414,0.1425,0.1444,0.1466,0.1475,0.1492,0.151,0.1535,0.1547,0.1576,0.1593,0.1617,0.1617,0.1592,0.1677,0.1642,0.1682,0.1683,0.1702,0.1701,0.1813,0.171,0.171,0.1709,0.1709,0,0.1404,0.1445,0.1443,0.1471,0.1517,0.151,0.1557,0.1564,0.158,0.1611,0.1597,0.1627,0.1624,0.1655,0.1656,0.1706,0.1713,0.1717,0.1718,0.172,0.172,0.1733,0.1729,0.1712,0.1712,0.1711,0.1711,0,0.1483,0.1483,0.1531,0.1545,0.155,0.1584,0.1597,0.1625,0.1629,0.1668,0.1677,0.1684,0.172,0.1722,0.1764,0.1765,0.1826,0.1819,0.182,0.1819,0.186,0.1858,0.1987,0.2005,0.1887,0.1888,0.1889,0,0.1534,0.1565,0.1583,0.1602,0.1613,0.1644,0.1663,0.1659,0.168,0.1705,0.1731,0.1765,0.1793,0.1852,0.1862,0.1895,0.1891,0.1934,0.1896,0.1899,0.1895,0.1895,0.1899,0.1942,0.1943,0.1944,0.1945,0,0.1627,0.1626,0.1653,0.1681,0.1704,0.1726,0.1747,0.1764,0.1763,0.1787,0.1824,0.1845,0.1888,0.1924,0.1957,0.1969,0.1959,0.1957,0.1968,0.1972,0.1973,0.1976,0.1843,0.1954,0.1953,0.1953,0.1952,0.1952,0.1696,0.1723,0.1741,0.1773,0.1788,0.1808,0.1836,0.1843,0.1873,0.1907,0.1903,0.1945,0.1967,0.2009,0.2024,0.2059,0.2044,0.206,0.2065,0.207,0.2075,0.1965,0.2064,0.2064,0.2064,0.2064,0.2063,0,0.1791,0.1801,0.183,0.186,0.1886,0.1871,0.1894,0.1918,0.1954,0.1974,0.2002,0.2046,0.2081,0.2094,0.213,0.2155,0.2151,0.2165,0.2164,0.2168,0.2084,0.2072,0.2167,0.2167,0.2167,0.2167,0.2167,0.2167,0.1843,0.189,0.1892,0.1948,0.1959,0.1998,0.2013,0.2033,0.205,0.2099,0.2128,0.2136,0.2155,0.2192,0.2225,0.2228,0.2244,0.226,0.2262,0.2184,0.2173,0.2163,0.2152,0.2262,0.2263,0.2343,0.2343,0.2344]}]]